| time (UTC) | temp F | wind direction | speed MPH | gust MPH | rain 1hr in | rain 24hr in | rain mn in | humidity % | barometer mb |
| 20260508041526 | 56 | 95 | 1.0 | 3.0 | 0.00 | 0.00 | 0.00 | 56 | 1015.1 |
| 20260508041005 | 57 | 109 | 1.0 | 2.0 | 0.00 | 0.00 | 0.00 | 56 | 1015.2 |
| 20260508040507 | 57 | 107 | 1.0 | 4.0 | 0.00 | 0.00 | 0.00 | 55 | 1015.2 |
| 20260508040017 | 58 | 85 | 0.0 | 7.0 | 0.00 | 0.00 | 0.00 | 54 | 1015.4 |
| 20260508035509 | 58 | 19 | 2.0 | 8.0 | 0.00 | 0.00 | 0.00 | 51 | 1015.5 |
| 20260508035007 | 58 | 360 | 3.0 | 8.0 | 0.00 | 0.00 | 0.00 | 48 | 1015.4 |
| 20260508034538 | 58 | 23 | 1.0 | 3.0 | 0.00 | 0.00 | 0.00 | 47 | 1015.2 |
| 20260508034007 | 58 | 346 | 1.0 | 3.0 | 0.00 | 0.00 | 0.00 | 47 | 1015.1 |
| 20260508033509 | 58 | 34 | 1.0 | 2.0 | 0.00 | 0.00 | 0.00 | 48 | 1014.7 |
| 20260508033010 | 58 | 24 | 0.0 | 3.0 | 0.00 | 0.00 | 0.00 | 46 | 1014.6 |
| 20260508032505 | 58 | 40 | 1.0 | 3.0 | 0.00 | 0.00 | 0.00 | 46 | 1014.5 |
| 20260508032009 | 58 | 50 | 1.0 | 2.0 | 0.00 | 0.00 | 0.00 | 46 | 1014.4 |
| 20260508031521 | 59 | 5 | 0.0 | 2.0 | 0.00 | 0.00 | 0.00 | 44 | 1014.4 |
| 20260508031010 | 59 | 321 | 0.0 | 2.0 | 0.00 | 0.00 | 0.00 | 43 | 1014.3 |
| 20260508030510 | 59 | 320 | 0.0 | 2.0 | 0.00 | 0.00 | 0.00 | 43 | 1014.1 |
| 20260508030027 | 60 | 331 | 0.0 | 2.0 | 0.00 | 0.00 | 0.00 | 44 | 1013.9 |
| 20260508025511 | 60 | 34 | 0.0 | 3.0 | 0.00 | 0.00 | 0.00 | 42 | 1013.9 |
| 20260508025007 | 60 | 167 | 0.0 | 3.0 | 0.00 | 0.00 | 0.00 | 41 | 1013.9 |
| 20260508024532 | 60 | 168 | 0.0 | 5.0 | 0.00 | 0.00 | 0.00 | 41 | 1013.9 |
| 20260508024008 | 61 | 268 | 2.0 | 5.0 | 0.00 | 0.00 | 0.00 | 39 | 1013.8 |
| 20260508023508 | 61 | 163 | 0.0 | 6.0 | 0.00 | 0.00 | 0.00 | 39 | 1013.8 |
| 20260508023023 | 61 | 198 | 1.0 | 6.0 | 0.00 | 0.00 | 0.00 | 38 | 1013.8 |
| 20260508022516 | 61 | 186 | 1.0 | 14.0 | 0.00 | 0.00 | 0.00 | 38 | 1013.7 |
| 20260508022010 | 61 | 221 | 2.0 | 14.0 | 0.00 | 0.00 | 0.00 | 38 | 1013.6 |
| 20260508021530 | 61 | 217 | 4.0 | 11.0 | 0.00 | 0.00 | 0.00 | 38 | 1013.6 |
| 20260508021007 | 61 | 226 | 2.0 | 9.0 | 0.00 | 0.00 | 0.00 | 39 | 1013.6 |
| 20260508020506 | 61 | 199 | 1.0 | 5.0 | 0.00 | 0.00 | 0.00 | 41 | 1013.6 |
| 20260508020019 | 61 | 196 | 1.0 | 5.0 | 0.00 | 0.00 | 0.00 | 42 | 1013.7 |
| 20260508015506 | 62 | 232 | 1.0 | 4.0 | 0.00 | 0.00 | 0.00 | 42 | 1013.5 |
| 20260508015012 | 62 | 191 | 1.0 | 4.0 | 0.00 | 0.00 | 0.00 | 41 | 1013.3 |
| 20260508014526 | 62 | 110 | 0.0 | 3.0 | 0.00 | 0.00 | 0.00 | 40 | 1013.0 |
| 20260508014010 | 63 | 159 | 0.0 | 4.0 | 0.00 | 0.00 | 0.00 | 39 | 1013.0 |
| 20260508013510 | 63 | 109 | 1.0 | 4.0 | 0.00 | 0.00 | 0.00 | 38 | 1012.8 |
| 20260508013015 | 64 | 121 | 0.0 | 3.0 | 0.00 | 0.00 | 0.00 | 37 | 1012.9 |
| 20260508012507 | 64 | 99 | 0.0 | 2.0 | 0.00 | 0.00 | 0.00 | 34 | 1012.9 |
| 20260508012007 | 64 | 90 | 0.0 | 2.0 | 0.00 | 0.00 | 0.00 | 34 | 1013.0 |
| 20260508011529 | 64 | 92 | 0.0 | 6.0 | 0.00 | 0.00 | 0.00 | 35 | 1013.0 |
| 20260508011007 | 64 | 127 | 3.0 | 6.0 | 0.00 | 0.00 | 0.00 | 35 | 1013.0 |
| 20260508010511 | 64 | 83 | 2.0 | 6.0 | 0.00 | 0.00 | 0.00 | 35 | 1012.9 |
| 20260508010030 | 65 | 65 | 3.0 | 5.0 | 0.00 | 0.00 | 0.00 | 35 | 1012.7 |
| 20260508005510 | 65 | 166 | 0.0 | 4.0 | 0.00 | 0.00 | 0.00 | 33 | 1012.4 |
| 20260508005007 | 65 | 188 | 0.0 | 4.0 | 0.00 | 0.00 | 0.00 | 31 | 1012.2 |
| 20260508004535 | 66 | 210 | 1.0 | 4.0 | 0.00 | 0.00 | 0.00 | 32 | 1012.2 |
| 20260508004010 | 66 | 153 | 0.0 | 4.0 | 0.00 | 0.00 | 0.00 | 31 | 1012.2 |
| 20260508003512 | 66 | 224 | 0.0 | 4.0 | 0.00 | 0.00 | 0.00 | 31 | 1012.1 |
| 20260508003026 | 67 | 220 | 1.0 | 4.0 | 0.00 | 0.00 | 0.00 | 30 | 1012.0 |
| 20260508002508 | 68 | 209 | 1.0 | 5.0 | 0.00 | 0.00 | 0.00 | 29 | 1012.1 |
| 20260508002013 | 68 | 173 | 2.0 | 5.0 | 0.00 | 0.00 | 0.00 | 27 | 1012.0 |
| 20260508001537 | 68 | 177 | 0.0 | 2.0 | 0.00 | 0.00 | 0.00 | 25 | 1011.9 |
| 20260508001007 | 69 | 199 | 0.0 | 5.0 | 0.00 | 0.00 | 0.00 | 26 | 1011.9 |
| 20260508000508 | 69 | 189 | 1.0 | 5.0 | 0.00 | 0.00 | 0.00 | 25 | 1012.0 |
| 20260508000021 | 70 | 100 | 1.0 | 3.0 | 0.00 | 0.00 | 0.00 | 25 | 1012.1 |
| 20260507235509 | 70 | 194 | 1.0 | 3.0 | 0.00 | 0.00 | 0.00 | 25 | 1012.1 |
| 20260507235011 | 71 | 228 | 0.0 | 2.0 | 0.00 | 0.00 | 0.00 | 24 | 1012.0 |
| 20260507234531 | 71 | 314 | 0.0 | 2.0 | 0.00 | 0.00 | 0.00 | 23 | 1011.9 |
| 20260507234007 | 71 | 352 | 0.0 | 2.0 | 0.00 | 0.00 | 0.00 | 23 | 1011.9 |
| 20260507233517 | 71 | 336 | 1.0 | 2.0 | 0.00 | 0.00 | 0.00 | 24 | 1012.0 |
| 20260507233017 | 71 | 210 | 1.0 | 4.0 | 0.00 | 0.00 | 0.00 | 23 | 1012.0 |
| 20260507232508 | 71 | 227 | 1.0 | 5.0 | 0.00 | 0.00 | 0.00 | 23 | 1011.9 |
| 20260507232012 | 71 | 236 | 1.0 | 6.0 | 0.00 | 0.00 | 0.00 | 23 | 1012.0 |
| 20260507231525 | 72 | 284 | 2.0 | 6.0 | 0.00 | 0.00 | 0.00 | 23 | 1012.1 |
| 20260507231010 | 72 | 213 | 1.0 | 3.0 | 0.00 | 0.00 | 0.00 | 22 | 1012.1 |
| 20260507230510 | 72 | 107 | 1.0 | 4.0 | 0.00 | 0.00 | 0.00 | 22 | 1012.1 |
| 20260507230028 | 72 | 173 | 1.0 | 4.0 | 0.00 | 0.00 | 0.00 | 22 | 1012.0 |
| 20260507225509 | 71 | 265 | 2.0 | 5.0 | 0.00 | 0.00 | 0.00 | 22 | 1012.1 |
| 20260507225008 | 71 | 242 | 1.0 | 6.0 | 0.00 | 0.00 | 0.00 | 24 | 1012.1 |
| 20260507224522 | 71 | 236 | 2.0 | 6.0 | 0.00 | 0.00 | 0.00 | 22 | 1012.1 |
| 20260507224007 | 71 | 250 | 1.0 | 5.0 | 0.00 | 0.00 | 0.00 | 23 | 1012.1 |
| 20260507223508 | 71 | 257 | 1.0 | 7.0 | 0.00 | 0.00 | 0.00 | 23 | 1012.1 |
| 20260507223027 | 71 | 24 | 2.0 | 10.0 | 0.00 | 0.00 | 0.00 | 24 | 1012.2 |
| 20260507222512 | 71 | 251 | 3.0 | 10.0 | 0.00 | 0.01 | 0.00 | 23 | 1012.2 |
| 20260507222009 | 71 | 180 | 1.0 | 5.0 | 0.00 | 0.01 | 0.00 | 23 | 1012.2 |
| 20260507221539 | 72 | 333 | 1.0 | 6.0 | 0.00 | 0.01 | 0.00 | 22 | 1012.2 |
| 20260507221008 | 72 | 342 | 1.0 | 6.0 | 0.00 | 0.02 | 0.00 | 23 | 1012.4 |
| 20260507220512 | 71 | 185 | 1.0 | 5.0 | 0.00 | 0.03 | 0.00 | 24 | 1012.5 |
| 20260507220024 | 71 | 185 | 2.0 | 6.0 | 0.00 | 0.03 | 0.00 | 25 | 1012.7 |
| 20260507215510 | 70 | 169 | 2.0 | 10.0 | 0.00 | 0.04 | 0.00 | 25 | 1012.8 |
| 20260507215010 | 70 | 229 | 3.0 | 9.0 | 0.00 | 0.05 | 0.00 | 26 | 1012.9 |
| 20260507214528 | 69 | 169 | 2.0 | 9.0 | 0.00 | 0.06 | 0.00 | 26 | 1013.1 |
| 20260507214009 | 69 | 157 | 2.0 | 6.0 | 0.00 | 0.07 | 0.00 | 27 | 1013.1 |
| 20260507213511 | 69 | 248 | 2.0 | 10.0 | 0.00 | 0.08 | 0.00 | 26 | 1013.3 |
| 20260507213026 | 69 | 212 | 2.0 | 10.0 | 0.00 | 0.09 | 0.00 | 26 | 1013.3 |
| 20260507212506 | 69 | 236 | 2.0 | 8.0 | 0.00 | 0.11 | 0.00 | 26 | 1013.3 |
| 20260507212007 | 68 | 161 | 3.0 | 8.0 | 0.00 | 0.13 | 0.00 | 27 | 1013.4 |
| 20260507211504 | 67 | 20 | 2.0 | 4.0 | 0.00 | 0.15 | 0.00 | 27 | 1013.5 |
| 20260507211005 | 67 | 117 | 1.0 | 11.0 | 0.00 | 0.16 | 0.00 | 29 | 1013.5 |
| 20260507210503 | 67 | 304 | 1.0 | 11.0 | 0.00 | 0.18 | 0.00 | 28 | 1013.7 |
| 20260507210003 | 67 | 329 | 2.0 | 8.0 | 0.00 | 0.20 | 0.00 | 27 | 1013.7 |
| 20260507205505 | 66 | 96 | 2.0 | 8.0 | 0.00 | 0.21 | 0.00 | 26 | 1013.8 |
| 20260507205004 | 66 | 171 | 3.0 | 8.0 | 0.00 | 0.24 | 0.00 | 28 | 1014.0 |
| 20260507204505 | 66 | 229 | 0.0 | 5.0 | 0.00 | 0.25 | 0.00 | 27 | 1014.0 |
| 20260507204004 | 66 | 234 | 0.0 | 5.0 | 0.00 | 0.26 | 0.00 | 29 | 1014.2 |
| 20260507203504 | 66 | 182 | 2.0 | 7.0 | 0.00 | 0.27 | 0.00 | 28 | 1014.2 |
| 20260507203004 | 66 | 219 | 1.0 | 7.0 | 0.00 | 0.29 | 0.00 | 27 | 1014.2 |
| 20260507202503 | 66 | 209 | 3.0 | 6.0 | 0.00 | 0.30 | 0.00 | 26 | 1014.2 |
| 20260507202003 | 67 | 242 | 2.0 | 5.0 | 0.00 | 0.32 | 0.00 | 29 | 1014.2 |
| 20260507201504 | 67 | 213 | 1.0 | 5.0 | 0.00 | 0.34 | 0.00 | 28 | 1014.3 |
| 20260507201004 | 67 | 196 | 2.0 | 7.0 | 0.00 | 0.37 | 0.00 | 26 | 1014.4 |
| 20260507200504 | 67 | 321 | 2.0 | 6.0 | 0.00 | 0.39 | 0.00 | 26 | 1014.5 |
| 20260507200004 | 68 | 335 | 1.0 | 5.0 | 0.00 | 0.42 | 0.00 | 25 | 1014.5 |
| 20260507195503 | 68 | 277 | 1.0 | 9.0 | 0.00 | 0.45 | 0.00 | 27 | 1014.4 |
| 20260507195003 | 68 | 145 | 4.0 | 9.0 | 0.00 | 0.48 | 0.00 | 26 | 1014.5 |
| 20260507194506 | 67 | 287 | 4.0 | 7.0 | 0.00 | 0.51 | 0.00 | 28 | 1014.5 |
| 20260507194003 | 67 | 194 | 2.0 | 8.0 | 0.00 | 0.54 | 0.00 | 26 | 1014.5 |
| 20260507193503 | 66 | 235 | 2.0 | 10.0 | 0.00 | 0.58 | 0.00 | 28 | 1014.7 |
| 20260507193006 | 66 | 267 | 2.0 | 10.0 | 0.00 | 0.62 | 0.00 | 27 | 1014.7 |
| 20260507192504 | 66 | 239 | 2.0 | 8.0 | 0.00 | 0.65 | 0.00 | 28 | 1014.7 |
| 20260507192003 | 65 | 260 | 2.0 | 6.0 | 0.00 | 0.67 | 0.00 | 29 | 1015.0 |
| 20260507191511 | 65 | 352 | 1.0 | 7.0 | 0.00 | 0.68 | 0.00 | 31 | 1015.0 |
| 20260507191003 | 65 | 221 | 3.0 | 7.0 | 0.00 | 0.69 | 0.00 | 28 | 1015.1 |
| 20260507190504 | 64 | 202 | 1.0 | 9.0 | 0.00 | 0.70 | 0.00 | 30 | 1015.1 |
| 20260507190012 | 64 | 209 | 3.0 | 9.0 | 0.00 | 0.71 | 0.00 | 32 | 1015.2 |
| 20260507185504 | 63 | 204 | 2.0 | 6.0 | 0.00 | 0.72 | 0.00 | 33 | 1015.3 |
| 20260507185002 | 62 | 251 | 2.0 | 5.0 | 0.00 | 0.73 | 0.00 | 33 | 1015.3 |
| 20260507184504 | 61 | 9 | 1.0 | 4.0 | 0.00 | 0.74 | 0.00 | 33 | 1015.4 |
| 20260507184003 | 61 | 34 | 1.0 | 3.0 | 0.00 | 0.75 | 0.00 | 32 | 1015.4 |
| 20260507183504 | 61 | 306 | 1.0 | 3.0 | 0.00 | 0.75 | 0.00 | 35 | 1015.3 |
| 20260507183008 | 61 | 349 | 0.0 | 6.0 | 0.00 | 0.76 | 0.00 | 35 | 1015.5 |
| 20260507182504 | 61 | 72 | 1.0 | 6.0 | 0.00 | 0.77 | 0.00 | 33 | 1015.4 |
| 20260507182005 | 61 | 251 | 1.0 | 5.0 | 0.00 | 0.78 | 0.00 | 34 | 1015.4 |
| 20260507181508 | 60 | 221 | 2.0 | 5.0 | 0.00 | 0.78 | 0.00 | 33 | 1015.4 |
| 20260507181006 | 60 | 177 | 1.0 | 4.0 | 0.00 | 0.79 | 0.00 | 38 | 1015.4 |
| 20260507180507 | 59 | 277 | 0.0 | 4.0 | 0.00 | 0.79 | 0.00 | 39 | 1015.5 |
| 20260507180012 | 59 | 250 | 1.0 | 2.0 | 0.00 | 0.80 | 0.00 | 38 | 1015.6 |
| 20260507175504 | 59 | 250 | 0.0 | 2.0 | 0.00 | 0.80 | 0.00 | 39 | 1015.6 |
| 20260507175003 | 59 | 291 | 0.0 | 3.0 | 0.00 | 0.81 | 0.00 | 39 | 1015.7 |
| 20260507174508 | 58 | 254 | 1.0 | 4.0 | 0.00 | 0.82 | 0.00 | 39 | 1015.8 |
| 20260507174005 | 58 | 222 | 2.0 | 5.0 | 0.00 | 0.82 | 0.00 | 39 | 1015.8 |
| 20260507173504 | 58 | 236 | 1.0 | 5.0 | 0.00 | 0.83 | 0.00 | 40 | 1015.9 |
| 20260507173015 | 58 | 215 | 1.0 | 5.0 | 0.00 | 0.83 | 0.00 | 40 | 1015.8 |
| 20260507172504 | 58 | 244 | 2.0 | 5.0 | 0.00 | 0.83 | 0.00 | 39 | 1015.8 |
| 20260507172004 | 58 | 227 | 2.0 | 4.0 | 0.00 | 0.84 | 0.00 | 38 | 1015.9 |
| 20260507171511 | 58 | 242 | 1.0 | 3.0 | 0.00 | 0.84 | 0.00 | 37 | 1016.1 |
| 20260507171003 | 58 | 236 | 0.0 | 3.0 | 0.00 | 0.84 | 0.00 | 37 | 1016.1 |
| 20260507170504 | 58 | 293 | 1.0 | 6.0 | 0.00 | 0.84 | 0.00 | 36 | 1016.1 |
| 20260507170009 | 58 | 286 | 1.0 | 7.0 | 0.00 | 0.85 | 0.00 | 37 | 1016.1 |
| 20260507165507 | 57 | 248 | 1.0 | 8.0 | 0.00 | 0.85 | 0.00 | 38 | 1016.0 |
| 20260507165003 | 57 | 250 | 2.0 | 8.0 | 0.00 | 0.85 | 0.00 | 39 | 1016.0 |
| 20260507164513 | 57 | 249 | 0.0 | 2.0 | 0.00 | 0.85 | 0.00 | 40 | 1015.9 |
| 20260507164004 | 57 | 273 | 0.0 | 3.0 | 0.00 | 0.85 | 0.00 | 39 | 1015.8 |
| 20260507163505 | 57 | 292 | 1.0 | 5.0 | 0.00 | 0.86 | 0.00 | 38 | 1015.6 |
| 20260507163009 | 56 | 329 | 2.0 | 9.0 | 0.00 | 0.86 | 0.00 | 36 | 1015.6 |
| 20260507162505 | 56 | 329 | 3.0 | 9.0 | 0.00 | 0.86 | 0.00 | 37 | 1015.6 |
| 20260507162006 | 56 | 352 | 2.0 | 9.0 | 0.00 | 0.86 | 0.00 | 39 | 1015.6 |
| 20260507161508 | 55 | 291 | 2.0 | 9.0 | 0.00 | 0.86 | 0.00 | 38 | 1015.7 |
| 20260507161007 | 55 | 19 | 3.0 | 6.0 | 0.00 | 0.87 | 0.00 | 39 | 1015.9 |
| 20260507160504 | 55 | 350 | 3.0 | 9.0 | 0.00 | 0.87 | 0.00 | 38 | 1016.2 |
| 20260507160009 | 55 | 333 | 3.0 | 9.0 | 0.00 | 0.87 | 0.00 | 37 | 1016.0 |
| 20260507155503 | 55 | 324 | 3.0 | 9.0 | 0.00 | 0.87 | 0.00 | 38 | 1016.1 |
| 20260507155011 | 56 | 275 | 2.0 | 7.0 | 0.00 | 0.87 | 0.00 | 38 | 1016.2 |
| 20260507154510 | 56 | 292 | 2.0 | 9.0 | 0.00 | 0.87 | 0.00 | 38 | 1016.3 |
| 20260507154009 | 57 | 360 | 3.0 | 9.0 | 0.00 | 0.87 | 0.00 | 37 | 1016.3 |
| 20260507153504 | 58 | 286 | 2.0 | 9.0 | 0.00 | 0.87 | 0.00 | 37 | 1016.3 |
| 20260507153009 | 58 | 283 | 2.0 | 9.0 | 0.00 | 0.87 | 0.00 | 35 | 1016.3 |
| 20260507152504 | 58 | 313 | 1.0 | 10.0 | 0.00 | 0.87 | 0.00 | 35 | 1016.3 |
| 20260507152003 | 58 | 360 | 2.0 | 10.0 | 0.00 | 0.87 | 0.00 | 35 | 1016.1 |
| 20260507151511 | 58 | 304 | 3.0 | 8.0 | 0.00 | 0.87 | 0.00 | 36 | 1016.3 |
| 20260507151005 | 58 | 252 | 3.0 | 8.0 | 0.00 | 0.87 | 0.00 | 36 | 1016.3 |
| 20260507150504 | 58 | 270 | 3.0 | 6.0 | 0.00 | 0.87 | 0.00 | 37 | 1016.3 |
| 20260507150009 | 57 | 9 | 3.0 | 9.0 | 0.00 | 0.87 | 0.00 | 38 | 1016.3 |
| 20260507145503 | 57 | 335 | 4.0 | 9.0 | 0.00 | 0.87 | 0.00 | 38 | 1016.1 |
| 20260507145007 | 57 | 270 | 2.0 | 9.0 | 0.00 | 0.87 | 0.00 | 40 | 1016.0 |
| 20260507144509 | 57 | 272 | 3.0 | 9.0 | 0.00 | 0.87 | 0.00 | 37 | 1016.0 |
| 20260507144004 | 57 | 261 | 2.0 | 7.0 | 0.00 | 0.88 | 0.00 | 38 | 1015.9 |
| 20260507143505 | 57 | 247 | 2.0 | 9.0 | 0.00 | 0.88 | 0.00 | 37 | 1015.9 |
| 20260507143012 | 57 | 268 | 2.0 | 8.0 | 0.00 | 0.88 | 0.00 | 39 | 1015.9 |
| 20260507142504 | 57 | 306 | 3.0 | 8.0 | 0.00 | 0.88 | 0.00 | 39 | 1015.7 |
| 20260507142011 | 57 | 323 | 3.0 | 11.0 | 0.00 | 0.88 | 0.00 | 39 | 1015.7 |
| 20260507141512 | 56 | 334 | 2.0 | 11.0 | 0.00 | 0.88 | 0.00 | 39 | 1015.8 |
| 20260507141004 | 56 | 329 | 1.0 | 10.0 | 0.00 | 0.88 | 0.00 | 40 | 1015.9 |
| 20260507140506 | 56 | 284 | 2.0 | 10.0 | 0.00 | 0.88 | 0.00 | 39 | 1015.9 |
| 20260507140013 | 56 | 330 | 5.0 | 9.0 | 0.00 | 0.88 | 0.00 | 39 | 1015.8 |
| 20260507135506 | 55 | 334 | 4.0 | 10.0 | 0.00 | 0.88 | 0.00 | 39 | 1015.8 |
| 20260507135008 | 55 | 9 | 4.0 | 10.0 | 0.00 | 0.88 | 0.00 | 40 | 1015.8 |
| 20260507134514 | 54 | 317 | 5.0 | 9.0 | 0.00 | 0.88 | 0.00 | 39 | 1015.8 |
| 20260507134005 | 54 | 305 | 3.0 | 8.0 | 0.00 | 0.88 | 0.00 | 41 | 1015.9 |
| 20260507133505 | 53 | 321 | 2.0 | 8.0 | 0.00 | 0.88 | 0.00 | 40 | 1016.1 |
| 20260507133019 | 53 | 319 | 2.0 | 9.0 | 0.00 | 0.88 | 0.00 | 41 | 1016.1 |
| 20260507132504 | 52 | 257 | 3.0 | 10.0 | 0.00 | 0.88 | 0.00 | 40 | 1016.1 |
| 20260507132009 | 52 | 300 | 1.0 | 11.0 | 0.00 | 0.88 | 0.00 | 41 | 1016.0 |
| 20260507131516 | 51 | 317 | 2.0 | 11.0 | 0.00 | 0.88 | 0.00 | 42 | 1016.1 |
| 20260507131004 | 51 | 284 | 2.0 | 9.0 | 0.00 | 0.88 | 0.00 | 43 | 1015.9 |
| 20260507130504 | 50 | 287 | 1.0 | 9.0 | 0.00 | 0.88 | 0.00 | 44 | 1015.8 |
| 20260507130016 | 49 | 344 | 2.0 | 7.0 | 0.00 | 0.88 | 0.00 | 45 | 1015.7 |
| 20260507125507 | 49 | 263 | 1.0 | 3.0 | 0.00 | 0.88 | 0.00 | 46 | 1015.7 |
| 20260507125005 | 48 | 277 | 1.0 | 3.0 | 0.00 | 0.88 | 0.00 | 48 | 1015.7 |
| 20260507124514 | 48 | 282 | 1.0 | 3.0 | 0.00 | 0.88 | 0.00 | 49 | 1015.7 |
| 20260507124006 | 48 | 261 | 1.0 | 5.0 | 0.00 | 0.88 | 0.00 | 48 | 1015.7 |
| 20260507123507 | 48 | 330 | 2.0 | 5.0 | 0.00 | 0.88 | 0.00 | 47 | 1015.7 |
| 20260507123015 | 48 | 288 | 1.0 | 8.0 | 0.00 | 0.88 | 0.00 | 47 | 1015.6 |
| 20260507122503 | 47 | 306 | 2.0 | 9.0 | 0.00 | 0.88 | 0.00 | 47 | 1015.5 |
| 20260507122003 | 45 | 309 | 3.0 | 9.0 | 0.00 | 0.88 | 0.00 | 48 | 1015.6 |
| 20260507121506 | 44 | 348 | 1.0 | 5.0 | 0.00 | 0.88 | 0.00 | 53 | 1015.4 |
| 20260507121004 | 43 | 244 | 1.0 | 5.0 | 0.00 | 0.88 | 0.00 | 54 | 1015.7 |
| 20260507120503 | 43 | 290 | 1.0 | 4.0 | 0.00 | 0.88 | 0.00 | 54 | 1015.5 |
| 20260507120010 | 42 | 227 | 0.0 | 2.0 | 0.00 | 0.88 | 0.00 | 58 | 1015.5 |
| 20260507115507 | 43 | 186 | 1.0 | 4.0 | 0.00 | 0.88 | 0.00 | 57 | 1015.4 |
| 20260507115006 | 43 | 265 | 2.0 | 4.0 | 0.00 | 0.88 | 0.00 | 56 | 1015.4 |
| 20260507114518 | 43 | 74 | 2.0 | 5.0 | 0.00 | 0.88 | 0.00 | 56 | 1015.4 |
| 20260507114003 | 43 | 229 | 1.0 | 5.0 | 0.00 | 0.88 | 0.00 | 53 | 1015.4 |
| 20260507113504 | 42 | 170 | 0.0 | 5.0 | 0.00 | 0.88 | 0.00 | 58 | 1015.4 |
| 20260507113012 | 42 | 269 | 2.0 | 4.0 | 0.00 | 0.88 | 0.00 | 59 | 1015.4 |
| 20260507112506 | 41 | 259 | 2.0 | 4.0 | 0.00 | 0.88 | 0.00 | 61 | 1015.6 |
| 20260507112007 | 41 | 234 | 2.0 | 5.0 | 0.00 | 0.88 | 0.00 | 58 | 1015.6 |
| 20260507111520 | 40 | 108 | 2.0 | 5.0 | 0.00 | 0.88 | 0.00 | 64 | 1015.4 |
| 20260507111006 | 39 | 61 | 3.0 | 4.0 | 0.00 | 0.88 | 0.00 | 69 | 1015.4 |
| 20260507110507 | 38 | 346 | 1.0 | 3.0 | 0.00 | 0.88 | 0.00 | 71 | 1015.4 |
| 20260507110003 | 39 | 51 | 2.0 | 3.0 | 0.00 | 0.88 | 0.00 | 68 | 1015.5 |
| 20260507105506 | 39 | 212 | 0.0 | 2.0 | 0.00 | 0.88 | 0.00 | 68 | 1015.6 |
| 20260507105004 | 39 | 128 | 0.0 | 2.0 | 0.00 | 0.88 | 0.00 | 67 | 1015.6 |
| 20260507104511 | 40 | 158 | 0.0 | 2.0 | 0.00 | 0.88 | 0.00 | 66 | 1015.6 |
| 20260507104009 | 41 | 126 | 0.0 | 2.0 | 0.00 | 0.88 | 0.00 | 63 | 1015.6 |
| 20260507103509 | 41 | 213 | 0.0 | 2.0 | 0.00 | 0.88 | 0.00 | 62 | 1015.5 |
| 20260507103026 | 41 | 209 | 1.0 | 4.0 | 0.00 | 0.88 | 0.00 | 64 | 1015.4 |
| 20260507102506 | 40 | 270 | 0.0 | 4.0 | 0.00 | 0.88 | 0.00 | 62 | 1015.5 |
| 20260507102003 | 39 | 234 | 0.0 | 2.0 | 0.00 | 0.88 | 0.00 | 66 | 1015.7 |
| 20260507101508 | 39 | 277 | 0.0 | 2.0 | 0.00 | 0.88 | 0.00 | 65 | 1015.6 |
| 20260507101002 | 39 | 180 | 0.0 | 2.0 | 0.00 | 0.88 | 0.00 | 66 | 1015.7 |
| 20260507100506 | 39 | 180 | 0.0 | 6.0 | 0.00 | 0.88 | 0.00 | 67 | 1015.7 |
| 20260507100020 | 39 | 188 | 1.0 | 6.0 | 0.00 | 0.88 | 0.00 | 66 | 1015.7 |
| 20260507095508 | 39 | 283 | 0.0 | 2.0 | 0.00 | 0.88 | 0.00 | 65 | 1015.8 |
| 20260507095006 | 39 | 261 | 0.0 | 2.0 | 0.00 | 0.88 | 0.00 | 65 | 1015.8 |
| 20260507094523 | 39 | 252 | 1.0 | 2.0 | 0.00 | 0.88 | 0.00 | 64 | 1015.9 |
| 20260507094005 | 39 | 209 | 0.0 | 2.0 | 0.00 | 0.88 | 0.00 | 64 | 1015.9 |
| 20260507093502 | 40 | 219 | 1.0 | 2.0 | 0.00 | 0.88 | 0.00 | 65 | 1015.9 |
| 20260507093007 | 40 | 15 | 0.0 | 2.0 | 0.00 | 0.88 | 0.00 | 61 | 1015.8 |
| 20260507092506 | 40 | 207 | 0.0 | 8.0 | 0.00 | 0.88 | 0.00 | 64 | 1015.8 |
| 20260507090010 | 40 | 254 | 0.0 | 6.0 | 0.00 | 0.88 | 0.00 | 64 | 1015.9 |
| 20260507085503 | 41 | 55 | 0.0 | 3.0 | 0.00 | 0.88 | 0.00 | 60 | 1015.9 |
| 20260507085003 | 42 | 352 | 0.0 | 4.0 | 0.00 | 0.88 | 0.00 | 58 | 1016.0 |
| 20260507084519 | 42 | 246 | 2.0 | 4.0 | 0.00 | 0.88 | 0.00 | 57 | 1015.9 |
| 20260507084007 | 43 | 254 | 0.0 | 5.0 | 0.00 | 0.88 | 0.00 | 56 | 1016.0 |
| 20260507083508 | 43 | 305 | 2.0 | 5.0 | 0.00 | 0.88 | 0.00 | 55 | 1015.9 |
| 20260507083021 | 42 | 277 | 1.0 | 4.0 | 0.00 | 0.88 | 0.00 | 56 | 1016.1 |
| 20260507082510 | 42 | 287 | 1.0 | 8.0 | 0.00 | 0.88 | 0.00 | 56 | 1016.1 |
| 20260507082002 | 42 | 255 | 1.0 | 9.0 | 0.00 | 0.89 | 0.00 | 58 | 1016.1 |
| 20260507081507 | 39 | 55 | 3.0 | 9.0 | 0.00 | 0.89 | 0.00 | 67 | 1015.9 |
| 20260507081006 | 36 | 352 | 2.0 | 4.0 | 0.00 | 0.89 | 0.00 | 69 | 1015.9 |
| 20260507080507 | 35 | 348 | 1.0 | 6.0 | 0.00 | 0.89 | 0.00 | 76 | 1016.0 |
| 20260507080020 | 34 | 57 | 3.0 | 6.0 | 0.00 | 0.89 | 0.00 | 76 | 1016.0 |
| 20260507075507 | 34 | 101 | 1.0 | 4.0 | 0.00 | 0.89 | 0.00 | 81 | 1016.1 |
| 20260507075003 | 34 | 57 | 1.0 | 4.0 | 0.00 | 0.89 | 0.00 | 80 | 1016.2 |
| 20260507074504 | 33 | 59 | 2.0 | 4.0 | 0.00 | 0.89 | 0.00 | 82 | 1016.2 |
| 20260507074003 | 33 | 59 | 2.0 | 3.0 | 0.00 | 0.89 | 0.00 | 83 | 1016.3 |
| 20260507073504 | 33 | 94 | 1.0 | 3.0 | 0.00 | 0.89 | 0.00 | 84 | 1016.2 |
| 20260507073011 | 33 | 78 | 1.0 | 3.0 | 0.00 | 0.89 | 0.00 | 83 | 1016.3 |
| 20260507072504 | 33 | 210 | 0.0 | 3.0 | 0.00 | 0.89 | 0.00 | 84 | 1016.3 |
| 20260507072008 | 33 | 280 | 1.0 | 3.0 | 0.00 | 0.89 | 0.00 | 84 | 1016.4 |
| 20260507071520 | 33 | 271 | 0.0 | 3.0 | 0.00 | 0.89 | 0.00 | 85 | 1016.4 |
| 20260507071003 | 33 | 282 | 1.0 | 3.0 | 0.00 | 0.89 | 0.00 | 85 | 1016.5 |
| 20260507070503 | 33 | 259 | 1.0 | 3.0 | 0.00 | 0.89 | 0.00 | 85 | 1016.6 |
| 20260507070008 | 33 | 256 | 0.0 | 3.0 | 0.00 | 0.89 | 0.00 | 86 | 1016.6 |
| 20260507065503 | 33 | 117 | 0.0 | 3.0 | 0.00 | 0.89 | 0.00 | 86 | 1016.6 |
| 20260507065006 | 34 | 224 | 1.0 | 6.0 | 0.00 | 0.89 | 0.00 | 86 | 1016.8 |
| 20260507064517 | 33 | 189 | 1.0 | 6.0 | 0.00 | 0.89 | 0.00 | 89 | 1016.8 |
| 20260507064006 | 32 | 278 | 1.0 | 5.0 | 0.00 | 0.89 | 0.00 | 94 | 1016.9 |
| 20260507063510 | 30 | 254 | 1.0 | 3.0 | 0.00 | 0.89 | 0.00 | 94 | 1017.1 |
| 20260507063002 | 30 | 225 | 1.0 | 3.0 | 0.00 | 0.89 | 0.00 | 94 | 1017.0 |
| 20260507062503 | 29 | 244 | 0.0 | 1.0 | 0.00 | 0.89 | 0.00 | 93 | 1016.9 |
| 20260507062004 | 29 | 236 | 0.0 | 0.0 | 0.00 | 0.89 | 0.00 | 93 | 1016.9 |
| 20260507061508 | 29 | 225 | 0.0 | 0.0 | 0.00 | 0.89 | 0.00 | 93 | 1017.0 |
| 20260507061005 | 29 | 225 | 0.0 | 0.0 | 0.00 | 0.89 | 0.00 | 93 | 1017.1 |
| 20260507060506 | 29 | 209 | 0.0 | 0.0 | 0.00 | 0.89 | 0.00 | 93 | 1017.1 |
| 20260507060020 | 29 | 209 | 0.0 | 0.0 | 0.00 | 0.89 | 0.00 | 93 | 1017.2 |
| 20260507055507 | 29 | 190 | 0.0 | 0.0 | 0.00 | 0.89 | 0.89 | 93 | 1017.2 |
| 20260507055002 | 29 | 193 | 0.0 | 0.0 | 0.00 | 0.89 | 0.89 | 93 | 1017.3 |
| 20260507054503 | 29 | 198 | 0.0 | 0.0 | 0.00 | 0.89 | 0.89 | 93 | 1017.3 |
| 20260507054003 | 29 | 166 | 0.0 | 0.0 | 0.00 | 0.89 | 0.89 | 93 | 1017.3 |
| 20260507053505 | 29 | 166 | 0.0 | 0.0 | 0.00 | 0.89 | 0.89 | 93 | 1017.3 |
| 20260507053011 | 30 | 166 | 0.0 | 0.0 | 0.00 | 0.89 | 0.89 | 92 | 1017.3 |
| 20260507052506 | 30 | 166 | 0.0 | 0.0 | 0.00 | 0.89 | 0.89 | 92 | 1017.3 |
| 20260507052008 | 30 | 166 | 0.0 | 0.0 | 0.00 | 0.89 | 0.89 | 92 | 1017.4 |
| 20260507051521 | 30 | 166 | 0.0 | 0.0 | 0.00 | 0.89 | 0.89 | 93 | 1017.5 |
| 20260507051006 | 30 | 166 | 0.0 | 0.0 | 0.00 | 0.89 | 0.89 | 93 | 1017.7 |
| 20260507050503 | 30 | 173 | 0.0 | 2.0 | 0.00 | 0.89 | 0.89 | 93 | 1017.7 |
| 20260507050020 | 30 | 175 | 0.0 | 2.0 | 0.00 | 0.89 | 0.89 | 92 | 1017.7 |
| 20260507045503 | 30 | 179 | 0.0 | 2.0 | 0.00 | 0.89 | 0.89 | 92 | 1017.8 |
| 20260507045006 | 30 | 179 | 0.0 | 2.0 | 0.00 | 0.89 | 0.89 | 92 | 1017.8 |
| 20260507044517 | 30 | 177 | 0.0 | 2.0 | 0.00 | 0.89 | 0.89 | 92 | 1017.9 |
| 20260507044012 | 30 | 177 | 0.0 | 2.0 | 0.00 | 0.89 | 0.89 | 92 | 1017.9 |
| 20260507043511 | 30 | 177 | 0.0 | 2.0 | 0.00 | 0.89 | 0.89 | 92 | 1018.0 |
| 20260507043026 | 31 | 177 | 0.0 | 2.0 | 0.00 | 0.89 | 0.89 | 92 | 1018.0 |
| 20260507042503 | 31 | 177 | 0.0 | 2.0 | 0.00 | 0.90 | 0.89 | 92 | 1017.8 |
| 20260507042003 | 31 | 177 | 0.0 | 2.0 | 0.00 | 0.90 | 0.89 | 92 | 1018.0 |